Thermal, CA

8:38 PM PST on February 21, 2017 (GMT -0800)
Desert Resorts Regional

Weather History for KTRM - May, 2013

Change the Weather History Date:

Wednesday, May 29, 2013

  Actual Average Record
Temperature  
Mean Temperature 85 °F 81 °F  
Max Temperature 99 °F 99 °F 114 °F (2000)
Min Temperature 70 °F 64 °F 50 °F (1971)
Degree Days  
Heating Degree Days 0 0  
Month to date heating degree days 0 0  
Since 1 July heating degree days 1124 1180  
Cooling Degree Days 20 16  
Month to date cooling degree days 446 383  
Year to date cooling degree days 874 639  
Growing Degree Days 35 (Base 50)    
Moisture  
Dew Point 48 °F    
Average Humidity 34    
Maximum Humidity 53    
Minimum Humidity 14    
Precipitation  
Precipitation 0.00 in 0.00 in 0.00 in (2017)
Month to date precipitation 0.00 0.03  
Year to date precipitation 0.44 1.80  
Since 1 July precipitation 2.62  
Snow  
Snow 0.00 in - - ()
Month to date snowfall 0.0  
Year to date snowfall 0.0  
Snow Depth 0.00 in    
Sea Level Pressure  
Sea Level Pressure 29.61 in    
Wind  
Wind Speed 7 mph (NNW)    
Max Wind Speed 16 mph    
Max Gust Speed 22 mph    
Visibility 10 miles    
Events      
T = Trace of Precipitation, MM = Missing Value Source: NWS Daily Summary

Daily Weather History Graph

Daily Weather History Graph

Search for Another Location

Airport or City:

Trip Planner

Search our weather history database for the weather conditions in past years. The results will help you decide how hot, cold, wet, or windy it might be!

Date:

Astronomy

May. 29, 2013 Rise Set
Actual Time 5:36 AM PDT 7:48 PM PDT
Civil Twilight 5:07 AM PDT 8:16 PM PDT
Nautical Twilight 4:33 AM PDT 8:51 PM PDT
Astronomical Twilight 3:55 AM PDT 9:29 PM PDT
Moon No Moon Rise 10:32 AM PDT (5/29)
Length of Visible Light 15h 08m
Length of Day
14h 12m
Waning Gibbous, 72% of the Moon is Illuminated
May 29
Waning Gibbous
May 31
Last Quarter
Jun 8
New
Jun 16
First Quarter
Jun 23
Full

Hourly Weather History & Observations

Time (PDT) Temp. Heat Index Dew Point Humidity Pressure Visibility Wind Dir Wind Speed Gust Speed Precip Events Conditions
12:52 AM 75.9 °F - 53.1 °F 45% 29.61 in 10.0 mi NW 13.8 mph - N/A   Clear
1:52 AM 75.0 °F - 52.0 °F 44% 29.61 in 10.0 mi NNW 8.1 mph - N/A   Clear
2:52 AM 75.0 °F - 52.0 °F 44% 29.61 in 10.0 mi NNW 13.8 mph - N/A   Clear
3:52 AM 73.9 °F - 53.1 °F 48% 29.62 in 10.0 mi NNW 13.8 mph - N/A   Clear
4:52 AM 72.0 °F - 53.1 °F 51% 29.62 in 10.0 mi NNW 10.4 mph - N/A   Clear
5:52 AM 72.0 °F - 53.1 °F 51% 29.64 in 10.0 mi NW 8.1 mph - N/A   Clear
6:52 AM 73.9 °F - 53.1 °F 48% 29.66 in 10.0 mi West 4.6 mph - N/A   Clear
7:52 AM 78.1 °F - 53.1 °F 42% 29.67 in 10.0 mi NNW 4.6 mph - N/A   Clear
8:52 AM 81.0 °F 80.5 °F 54.0 °F 39% 29.68 in 10.0 mi Variable 3.5 mph - N/A   Clear
9:52 AM 86.0 °F - 50.0 °F 29% 29.67 in 10.0 mi North 6.9 mph - N/A   Clear
10:52 AM 89.1 °F - 46.9 °F 23% 29.67 in 10.0 mi Variable 3.5 mph - N/A   Clear
11:52 AM 93.0 °F - 46.0 °F 20% 29.65 in 10.0 mi Variable 4.6 mph - N/A   Clear
12:52 PM 93.9 °F - 45.0 °F 18% 29.64 in 10.0 mi Calm Calm - N/A   Clear
1:52 PM 96.1 °F - 39.9 °F 14% 29.62 in 10.0 mi ESE 8.1 mph - N/A   Clear
2:52 PM 97.0 °F - 39.0 °F 13% 29.59 in 10.0 mi SE 9.2 mph - N/A   Clear
3:52 PM 98.1 °F - 42.1 °F 15% 29.56 in 10.0 mi SE 8.1 mph - N/A   Clear
4:52 PM 98.1 °F - 44.1 °F 16% 29.54 in 10.0 mi SE 5.8 mph - N/A   Clear
5:52 PM 97.0 °F - 45.0 °F 17% 29.53 in 10.0 mi SSE 6.9 mph - N/A   Clear
6:52 PM 93.9 °F - 48.0 °F 21% 29.53 in 10.0 mi South 4.6 mph - N/A   Clear
7:52 PM 88.0 °F - 51.1 °F 28% 29.54 in 10.0 mi East 5.8 mph - N/A   Clear
8:52 PM 89.1 °F - 46.9 °F 23% 29.56 in 10.0 mi NNW 11.5 mph - N/A   Clear
9:52 PM 87.1 °F - 48.0 °F 26% 29.61 in 10.0 mi North 13.8 mph - N/A   Clear
10:52 PM 84.9 °F - 46.9 °F 27% 29.63 in 10.0 mi NNW 8.1 mph - N/A   Clear
11:52 PM 84.0 °F - 48.0 °F 28% 29.62 in 10.0 mi NW 8.1 mph - N/A   Clear